| time (UTC) | temp F | wind direction | speed MPH | gust MPH | rain 1hr in | rain 24hr in | rain mn in | humidity % | barometer mb |
| 20260831114555 | 60 | 190 | 0.0 | 0.0 | 0.00 | 0.00 | 0.00 | 82 | 1019.8 |
| 20260831113052 | 58 | 190 | 0.0 | 0.0 | 0.00 | 0.00 | 0.00 | 82 | 1019.7 |
| 20260831111553 | 57 | 190 | 0.0 | 0.0 | 0.00 | 0.00 | 0.00 | 82 | 1019.6 |
| 20260831110049 | 57 | 190 | 0.0 | 0.0 | 0.00 | 0.00 | 0.00 | 82 | 1019.4 |
| 20260831104549 | 57 | 190 | 0.0 | 0.0 | 0.00 | 0.00 | 0.00 | 82 | 1019.4 |
| 20260831103047 | 57 | 190 | 0.0 | 0.0 | 0.00 | 0.00 | 0.00 | 82 | 1019.0 |
| 20260831101552 | 57 | 190 | 0.0 | 0.0 | 0.00 | 0.00 | 0.00 | 82 | 1018.9 |
| 20260831094542 | 58 | 190 | 0.0 | 0.0 | 0.00 | 0.00 | 0.00 | 82 | 1018.9 |
| 20260831093047 | 58 | 190 | 0.0 | 0.0 | 0.00 | 0.00 | 0.00 | 82 | 1019.0 |
| 20260831091538 | 58 | 190 | 0.0 | 0.0 | 0.00 | 0.00 | 0.00 | 82 | 1018.8 |
| 20260831090036 | 58 | 190 | 0.0 | 0.0 | 0.00 | 0.00 | 0.00 | 82 | 1018.6 |
| 20260831084542 | 58 | 190 | 0.0 | 0.0 | 0.00 | 0.00 | 0.00 | 82 | 1018.7 |
| 20260831083034 | 59 | 190 | 0.0 | 0.0 | 0.00 | 0.00 | 0.00 | 82 | 1018.6 |
| 20260831081536 | 59 | 190 | 0.0 | 0.0 | 0.00 | 0.00 | 0.00 | 82 | 1018.6 |
| 20260831080029 | 59 | 190 | 0.0 | 0.0 | 0.00 | 0.00 | 0.00 | 82 | 1018.5 |
| 20260831074529 | 60 | 190 | 0.0 | 0.0 | 0.00 | 0.00 | 0.00 | 82 | 1018.6 |
| 20260831073026 | 60 | 190 | 0.0 | 0.0 | 0.00 | 0.00 | 0.00 | 82 | 1018.5 |
| 20260831071524 | 60 | 190 | 0.0 | 0.0 | 0.00 | 0.00 | 0.00 | 82 | 1018.3 |
| 20260831070025 | 60 | 190 | 0.0 | 0.0 | 0.00 | 0.00 | 0.00 | 82 | 1018.2 |
| 20260831064521 | 61 | 190 | 0.0 | 0.0 | 0.00 | 0.00 | 0.00 | 82 | 1018.2 |
| 20260831063022 | 61 | 190 | 0.0 | 0.0 | 0.00 | 0.00 | 0.00 | 82 | 1018.2 |
| 20260831061517 | 62 | 190 | 0.0 | 0.0 | 0.00 | 0.00 | 0.00 | 82 | 1018.2 |
| 20260831060014 | 62 | 190 | 0.0 | 0.0 | 0.00 | 0.00 | 0.00 | 81 | 1018.1 |
| 20260831054512 | 63 | 190 | 0.0 | 0.0 | 0.00 | 0.00 | 0.00 | 81 | 1018.0 |
| 20260831053032 | 63 | 190 | 0.0 | 0.0 | 0.00 | 0.00 | 0.00 | 81 | 1017.8 |
| 20260831051507 | 64 | 190 | 0.0 | 0.0 | 0.00 | 0.00 | 0.00 | 80 | 1017.7 |
| 20260831050008 | 64 | 190 | 0.0 | 0.0 | 0.00 | 0.00 | 0.00 | 80 | 1017.7 |
| 20260831044502 | 65 | 190 | 0.0 | 0.0 | 0.00 | 0.00 | 0.00 | 79 | 1017.7 |
| 20260831043102 | 65 | 190 | 0.0 | 0.0 | 0.00 | 0.00 | 0.00 | 79 | 1017.5 |
| 20260831041557 | 66 | 190 | 0.0 | 0.0 | 0.00 | 0.00 | 0.00 | 78 | 1017.6 |
| 20260831040054 | 67 | 190 | 0.0 | 0.0 | 0.00 | 0.00 | 0.00 | 77 | 1017.6 |
| 20260831034553 | 68 | 190 | 0.0 | 0.0 | 0.00 | 0.00 | 0.00 | 77 | 1017.4 |
| 20260831033055 | 68 | 190 | 0.0 | 0.0 | 0.00 | 0.00 | 0.00 | 77 | 1017.6 |
| 20260831031552 | 69 | 190 | 0.0 | 0.0 | 0.00 | 0.00 | 0.00 | 76 | 1017.6 |
| 20260831030051 | 69 | 190 | 0.0 | 0.0 | 0.00 | 0.00 | 0.00 | 76 | 1017.6 |
| 20260831024505 | 70 | 0 | 0.0 | 0.0 | 0.00 | 0.00 | 0.00 | 76 | 1017.4 |
| 20260831024005 | 70 | 0 | 0.0 | 0.0 | 0.00 | 0.00 | 0.00 | 76 | 1017.4 |
| 20260831023005 | 70 | 0 | 0.0 | 0.0 | 0.00 | 0.00 | 0.00 | 75 | 1017.3 |
| 20260831022005 | 70 | 191 | 0.0 | 4.0 | 0.00 | 0.00 | 0.00 | 77 | 1017.3 |
| 20260831021508 | 70 | 190 | 0.0 | 4.0 | 0.00 | 0.00 | 0.00 | 78 | 1017.4 |
| 20260831021505 | 70 | 191 | 0.0 | 4.0 | 0.00 | 0.00 | 0.00 | 78 | 1017.3 |
| 20260831021004 | 70 | 0 | 0.0 | 0.0 | 0.00 | 0.00 | 0.00 | 78 | 1017.2 |
| 20260831020505 | 70 | 0 | 0.0 | 0.0 | 0.00 | 0.00 | 0.00 | 78 | 1017.2 |
| 20260831020006 | 70 | 190 | 0.0 | 0.0 | 0.00 | 0.00 | 0.00 | 78 | 1017.4 |
| 20260831015505 | 71 | 0 | 0.0 | 0.0 | 0.00 | 0.00 | 0.00 | 78 | 1017.1 |
| 20260831014505 | 70 | 190 | 0.0 | 1.0 | 0.00 | 0.00 | 0.00 | 78 | 1017.2 |
| 20260831014005 | 71 | 191 | 0.0 | 1.0 | 0.00 | 0.00 | 0.00 | 78 | 1017.1 |
| 20260831013505 | 71 | 0 | 0.0 | 0.0 | 0.00 | 0.00 | 0.00 | 77 | 1017.1 |
| 20260831013005 | 71 | 191 | 0.0 | 1.0 | 0.00 | 0.00 | 0.00 | 77 | 1017.0 |
| 20260831012505 | 71 | 191 | 0.0 | 1.0 | 0.00 | 0.00 | 0.00 | 77 | 1016.9 |
| 20260831012005 | 71 | 191 | 0.0 | 2.0 | 0.00 | 0.00 | 0.00 | 77 | 1016.8 |
| 20260831011505 | 70 | 191 | 0.0 | 2.0 | 0.00 | 0.00 | 0.00 | 78 | 1016.7 |
| 20260831010505 | 70 | 0 | 0.0 | 0.0 | 0.00 | 0.00 | 0.00 | 78 | 1016.7 |
| 20260831010005 | 70 | 0 | 0.0 | 0.0 | 0.00 | 0.00 | 0.00 | 78 | 1016.6 |
| 20260831004503 | 69 | 190 | 0.0 | 0.0 | 0.00 | 0.00 | 0.00 | 78 | 1016.7 |
| 20260831004005 | 70 | 0 | 0.0 | 0.0 | 0.00 | 0.00 | 0.00 | 77 | 1016.5 |
| 20260831003505 | 70 | 0 | 0.0 | 0.0 | 0.00 | 0.00 | 0.00 | 77 | 1016.4 |
| 20260831003008 | 70 | 190 | 0.0 | 0.0 | 0.00 | 0.00 | 0.00 | 77 | 1016.5 |
| 20260831003005 | 70 | 0 | 0.0 | 0.0 | 0.00 | 0.00 | 0.00 | 77 | 1016.3 |
| 20260831002505 | 70 | 0 | 0.0 | 0.0 | 0.00 | 0.00 | 0.00 | 77 | 1016.3 |
| 20260831002005 | 70 | 0 | 0.0 | 0.0 | 0.00 | 0.00 | 0.00 | 77 | 1016.3 |
| 20260831001505 | 70 | 0 | 0.0 | 0.0 | 0.00 | 0.00 | 0.00 | 77 | 1016.3 |
| 20260831001005 | 71 | 0 | 0.0 | 0.0 | 0.00 | 0.00 | 0.00 | 77 | 1016.1 |
| 20260831000504 | 71 | 0 | 0.0 | 0.0 | 0.00 | 0.00 | 0.00 | 76 | 1016.1 |
| 20260831000005 | 71 | 0 | 0.0 | 0.0 | 0.00 | 0.00 | 0.00 | 76 | 1016.2 |
| 20260830235505 | 71 | 0 | 0.0 | 0.0 | 0.00 | 0.00 | 0.00 | 76 | 1016.1 |
| 20260830235005 | 71 | 0 | 0.0 | 0.0 | 0.00 | 0.00 | 0.00 | 75 | 1016.1 |
| 20260830234504 | 71 | 190 | 0.0 | 0.0 | 0.00 | 0.00 | 0.00 | 75 | 1016.4 |
| 20260830234005 | 71 | 0 | 0.0 | 0.0 | 0.00 | 0.00 | 0.00 | 75 | 1016.1 |
| 20260830233504 | 71 | 0 | 0.0 | 0.0 | 0.00 | 0.00 | 0.00 | 75 | 1016.2 |
| 20260830233005 | 72 | 0 | 0.0 | 0.0 | 0.00 | 0.00 | 0.00 | 74 | 1016.1 |
| 20260830232005 | 72 | 0 | 0.0 | 0.0 | 0.00 | 0.00 | 0.00 | 74 | 1016.1 |
| 20260830231511 | 72 | 190 | 0.0 | 0.0 | 0.00 | 0.00 | 0.00 | 73 | 1016.4 |
| 20260830231505 | 72 | 0 | 0.0 | 0.0 | 0.00 | 0.00 | 0.00 | 73 | 1016.1 |
| 20260830231004 | 73 | 0 | 0.0 | 0.0 | 0.00 | 0.00 | 0.00 | 72 | 1016.0 |
| 20260830230505 | 73 | 0 | 0.0 | 0.0 | 0.00 | 0.00 | 0.00 | 70 | 1016.1 |
| 20260830230006 | 72 | 190 | 0.0 | 0.0 | 0.00 | 0.00 | 0.00 | 70 | 1016.4 |
| 20260830230004 | 73 | 0 | 0.0 | 0.0 | 0.00 | 0.00 | 0.00 | 70 | 1016.2 |
| 20260830225504 | 73 | 0 | 0.0 | 0.0 | 0.00 | 0.00 | 0.00 | 70 | 1016.1 |
| 20260830225005 | 73 | 0 | 0.0 | 0.0 | 0.00 | 0.00 | 0.00 | 69 | 1016.1 |
| 20260830224506 | 73 | 190 | 0.0 | 0.0 | 0.00 | 0.00 | 0.00 | 69 | 1016.4 |
| 20260830223044 | 74 | 190 | 0.0 | 0.0 | 0.00 | 0.00 | 0.00 | 67 | 1016.4 |
| 20260830221547 | 74 | 190 | 0.0 | 0.0 | 0.00 | 0.00 | 0.00 | 67 | 1016.3 |
| 20260830220051 | 75 | 190 | 0.0 | 0.0 | 0.00 | 0.00 | 0.00 | 66 | 1016.4 |
| 20260830214544 | 75 | 190 | 0.0 | 2.0 | 0.00 | 0.00 | 0.00 | 63 | 1016.5 |
| 20260830213049 | 75 | 190 | 0.0 | 0.0 | 0.00 | 0.00 | 0.00 | 64 | 1016.5 |
| 20260830211553 | 75 | 190 | 0.0 | 4.0 | 0.00 | 0.00 | 0.00 | 64 | 1016.5 |
| 20260830210052 | 76 | 190 | 0.0 | 0.0 | 0.00 | 0.00 | 0.00 | 64 | 1016.6 |
| 20260830204538 | 76 | 190 | 0.0 | 1.0 | 0.00 | 0.00 | 0.00 | 62 | 1016.5 |
| 20260830203045 | 77 | 190 | 0.0 | 2.0 | 0.00 | 0.00 | 0.00 | 60 | 1016.6 |
| 20260830201536 | 77 | 190 | 0.0 | 0.0 | 0.00 | 0.00 | 0.00 | 58 | 1016.7 |
| 20260830200037 | 77 | 190 | 0.0 | 2.0 | 0.00 | 0.00 | 0.00 | 60 | 1016.8 |
| 20260830194503 | 76 | 190 | 0.0 | 0.0 | 0.00 | 0.00 | 0.00 | 59 | 1017.0 |
| 20260830194004 | 76 | 0 | 0.0 | 0.0 | 0.00 | 0.00 | 0.00 | 60 | 1016.8 |
| 20260830193504 | 76 | 0 | 0.0 | 0.0 | 0.00 | 0.00 | 0.00 | 63 | 1016.8 |
| 20260830193007 | 75 | 190 | 0.0 | 0.0 | 0.00 | 0.00 | 0.00 | 61 | 1017.1 |
| 20260830193004 | 76 | 0 | 0.0 | 0.0 | 0.00 | 0.00 | 0.00 | 61 | 1016.9 |
| 20260830192504 | 75 | 0 | 0.0 | 0.0 | 0.00 | 0.00 | 0.00 | 61 | 1017.0 |
| 20260830191518 | 75 | 190 | 0.0 | 0.0 | 0.00 | 0.00 | 0.00 | 57 | 1017.4 |
| 20260830191504 | 75 | 0 | 0.0 | 0.0 | 0.00 | 0.00 | 0.00 | 57 | 1017.1 |
| 20260830191004 | 76 | 0 | 0.0 | 0.0 | 0.00 | 0.00 | 0.00 | 57 | 1017.2 |
| 20260830190504 | 76 | 0 | 0.0 | 0.0 | 0.00 | 0.00 | 0.00 | 56 | 1017.4 |
| 20260830190013 | 76 | 190 | 0.0 | 0.0 | 0.00 | 0.00 | 0.00 | 56 | 1017.7 |
| 20260830190004 | 76 | 0 | 0.0 | 0.0 | 0.00 | 0.00 | 0.00 | 56 | 1017.5 |
| 20260830185504 | 76 | 0 | 0.0 | 0.0 | 0.00 | 0.00 | 0.00 | 54 | 1017.3 |
| 20260830184514 | 76 | 190 | 0.0 | 0.0 | 0.00 | 0.00 | 0.00 | 53 | 1017.8 |
| 20260830184504 | 77 | 0 | 0.0 | 0.0 | 0.00 | 0.00 | 0.00 | 53 | 1017.6 |
| 20260830184003 | 77 | 0 | 0.0 | 0.0 | 0.00 | 0.00 | 0.00 | 52 | 1017.7 |
| 20260830183504 | 78 | 0 | 0.0 | 0.0 | 0.00 | 0.00 | 0.00 | 52 | 1017.8 |
| 20260830183012 | 78 | 190 | 0.0 | 0.0 | 0.00 | 0.00 | 0.00 | 49 | 1018.0 |
| 20260830183004 | 78 | 0 | 0.0 | 0.0 | 0.00 | 0.00 | 0.00 | 49 | 1017.8 |
| 20260830182003 | 80 | 191 | 0.0 | 3.0 | 0.00 | 0.00 | 0.00 | 49 | 1017.8 |
| 20260830181513 | 79 | 190 | 0.0 | 4.0 | 0.00 | 0.00 | 0.00 | 45 | 1018.0 |
| 20260830181504 | 80 | 191 | 0.0 | 4.0 | 0.00 | 0.00 | 0.00 | 45 | 1017.8 |
| 20260830181004 | 80 | 191 | 0.0 | 4.0 | 0.00 | 0.00 | 0.00 | 51 | 1017.8 |
| 20260830180023 | 80 | 190 | 0.0 | 4.0 | 0.00 | 0.00 | 0.00 | 51 | 1018.1 |
| 20260830180004 | 80 | 191 | 0.0 | 2.0 | 0.00 | 0.00 | 0.00 | 51 | 1017.9 |
| 20260830175504 | 80 | 0 | 0.0 | 0.0 | 0.00 | 0.00 | 0.00 | 55 | 1017.9 |
| 20260830174516 | 78 | 190 | 0.0 | 2.0 | 0.00 | 0.00 | 0.00 | 57 | 1018.2 |
| 20260830174504 | 79 | 190 | 0.0 | 2.0 | 0.00 | 0.00 | 0.00 | 57 | 1017.9 |
| 20260830174004 | 79 | 0 | 0.0 | 0.0 | 0.00 | 0.00 | 0.00 | 57 | 1018.0 |
| 20260830173504 | 78 | 191 | 0.0 | 1.0 | 0.00 | 0.00 | 0.00 | 57 | 1018.1 |
| 20260830173014 | 78 | 190 | 0.0 | 1.0 | 0.00 | 0.00 | 0.00 | 54 | 1018.3 |
| 20260830173004 | 78 | 191 | 0.0 | 1.0 | 0.00 | 0.00 | 0.00 | 54 | 1018.1 |
| 20260830172504 | 78 | 0 | 0.0 | 0.0 | 0.00 | 0.00 | 0.00 | 56 | 1018.1 |
| 20260830172004 | 78 | 191 | 0.0 | 3.0 | 0.00 | 0.00 | 0.00 | 53 | 1018.3 |
| 20260830171512 | 78 | 190 | 0.0 | 3.0 | 0.00 | 0.00 | 0.00 | 57 | 1018.6 |
| 20260830171504 | 78 | 191 | 0.0 | 3.0 | 0.00 | 0.00 | 0.00 | 57 | 1018.3 |
| 20260830171004 | 78 | 191 | 0.0 | 3.0 | 0.00 | 0.00 | 0.00 | 53 | 1018.4 |
| 20260830170504 | 78 | 190 | 0.0 | 3.0 | 0.00 | 0.00 | 0.00 | 55 | 1018.6 |
| 20260830170018 | 78 | 190 | 0.0 | 7.0 | 0.00 | 0.00 | 0.00 | 53 | 1018.8 |
| 20260830170004 | 78 | 191 | 0.0 | 7.0 | 0.00 | 0.00 | 0.00 | 53 | 1018.6 |
| 20260830165004 | 78 | 191 | 0.0 | 2.0 | 0.00 | 0.00 | 0.00 | 55 | 1018.6 |
| 20260830164513 | 78 | 190 | 0.0 | 0.0 | 0.00 | 0.00 | 0.00 | 55 | 1018.9 |
| 20260830164504 | 78 | 0 | 0.0 | 0.0 | 0.00 | 0.00 | 0.00 | 55 | 1018.6 |
| 20260830164004 | 78 | 191 | 0.0 | 4.0 | 0.00 | 0.00 | 0.00 | 51 | 1018.6 |
| 20260830163504 | 79 | 190 | 0.0 | 4.0 | 0.00 | 0.00 | 0.00 | 53 | 1018.6 |
| 20260830163014 | 79 | 190 | 0.0 | 1.0 | 0.00 | 0.00 | 0.00 | 51 | 1018.7 |
| 20260830163004 | 79 | 191 | 0.0 | 1.0 | 0.00 | 0.00 | 0.00 | 51 | 1018.5 |
| 20260830162504 | 79 | 0 | 0.0 | 0.0 | 0.00 | 0.00 | 0.00 | 53 | 1018.6 |
| 20260830162004 | 79 | 191 | 0.0 | 2.0 | 0.00 | 0.00 | 0.00 | 54 | 1018.7 |
| 20260830161525 | 79 | 190 | 0.0 | 2.0 | 0.00 | 0.00 | 0.00 | 53 | 1019.0 |
| 20260830161504 | 79 | 191 | 0.0 | 2.0 | 0.00 | 0.00 | 0.00 | 53 | 1018.8 |
| 20260830161004 | 80 | 191 | 0.0 | 3.0 | 0.00 | 0.00 | 0.00 | 52 | 1018.9 |
| 20260830160504 | 80 | 191 | 0.0 | 3.0 | 0.00 | 0.00 | 0.00 | 52 | 1019.0 |
| 20260830160014 | 79 | 190 | 0.0 | 4.0 | 0.00 | 0.00 | 0.00 | 52 | 1019.3 |
| 20260830160004 | 79 | 191 | 0.0 | 4.0 | 0.00 | 0.00 | 0.00 | 52 | 1019.1 |
| 20260830155504 | 79 | 191 | 0.0 | 4.0 | 0.00 | 0.00 | 0.00 | 52 | 1019.2 |
| 20260830154513 | 77 | 190 | 0.0 | 2.0 | 0.00 | 0.00 | 0.00 | 54 | 1019.4 |
| 20260830154504 | 77 | 191 | 0.0 | 3.0 | 0.00 | 0.00 | 0.00 | 54 | 1019.3 |
| 20260830154004 | 77 | 191 | 0.0 | 3.0 | 0.00 | 0.00 | 0.00 | 54 | 1019.3 |
| 20260830153504 | 77 | 0 | 0.0 | 0.0 | 0.00 | 0.00 | 0.00 | 59 | 1019.4 |
| 20260830153013 | 75 | 190 | 0.0 | 0.0 | 0.00 | 0.00 | 0.00 | 63 | 1019.7 |
| 20260830153004 | 76 | 0 | 0.0 | 0.0 | 0.00 | 0.00 | 0.00 | 61 | 1019.5 |
| 20260830152504 | 75 | 0 | 0.0 | 0.0 | 0.00 | 0.00 | 0.00 | 62 | 1019.6 |
| 20260830152004 | 74 | 191 | 0.0 | 1.0 | 0.00 | 0.00 | 0.00 | 62 | 1019.6 |
| 20260830151513 | 74 | 190 | 0.0 | 2.0 | 0.00 | 0.00 | 0.00 | 62 | 1019.9 |
| 20260830151503 | 74 | 191 | 0.0 | 2.0 | 0.00 | 0.00 | 0.00 | 62 | 1019.7 |
| 20260830151004 | 74 | 191 | 0.0 | 2.0 | 0.00 | 0.00 | 0.00 | 60 | 1019.7 |
| 20260830150505 | 74 | 0 | 0.0 | 0.0 | 0.00 | 0.00 | 0.00 | 60 | 1019.7 |
| 20260830150013 | 73 | 190 | 0.0 | 2.0 | 0.00 | 0.00 | 0.00 | 61 | 1020.1 |
| 20260830150004 | 74 | 0 | 0.0 | 0.0 | 0.00 | 0.00 | 0.00 | 60 | 1019.9 |
| 20260830145505 | 74 | 0 | 0.0 | 0.0 | 0.00 | 0.00 | 0.00 | 60 | 1019.9 |
| 20260830145004 | 74 | 191 | 0.0 | 3.0 | 0.00 | 0.00 | 0.00 | 61 | 1019.9 |
| 20260830144513 | 73 | 190 | 0.0 | 3.0 | 0.00 | 0.00 | 0.00 | 60 | 1020.0 |
| 20260830144504 | 73 | 191 | 0.0 | 3.0 | 0.00 | 0.00 | 0.00 | 60 | 1019.8 |
| 20260830144004 | 73 | 190 | 0.0 | 2.0 | 0.00 | 0.00 | 0.00 | 60 | 1019.8 |
| 20260830143022 | 72 | 190 | 0.0 | 0.0 | 0.00 | 0.00 | 0.00 | 62 | 1020.1 |
| 20260830143004 | 73 | 0 | 0.0 | 0.0 | 0.00 | 0.00 | 0.00 | 62 | 1019.9 |
| 20260830142504 | 72 | 0 | 0.0 | 0.0 | 0.00 | 0.00 | 0.00 | 64 | 1019.8 |
| 20260830141516 | 71 | 190 | 0.0 | 2.0 | 0.00 | 0.00 | 0.00 | 62 | 1020.2 |
| 20260830141504 | 72 | 191 | 0.0 | 2.0 | 0.00 | 0.00 | 0.00 | 62 | 1020.0 |
| 20260830141004 | 71 | 191 | 0.0 | 2.0 | 0.00 | 0.00 | 0.00 | 65 | 1020.1 |
| 20260830140504 | 70 | 191 | 0.0 | 2.0 | 0.00 | 0.00 | 0.00 | 67 | 1020.1 |
| 20260830140016 | 69 | 190 | 0.0 | 0.0 | 0.00 | 0.00 | 0.00 | 67 | 1020.4 |
| 20260830135004 | 68 | 0 | 0.0 | 0.0 | 0.00 | 0.00 | 0.00 | 73 | 1020.2 |
| 20260830134520 | 68 | 190 | 0.0 | 0.0 | 0.00 | 0.00 | 0.00 | 75 | 1020.5 |
| 20260830134504 | 68 | 0 | 0.0 | 0.0 | 0.00 | 0.00 | 0.00 | 75 | 1020.3 |
| 20260830133018 | 67 | 190 | 0.0 | 0.0 | 0.00 | 0.00 | 0.00 | 74 | 1020.6 |
| 20260830131513 | 66 | 190 | 0.0 | 0.0 | 0.00 | 0.00 | 0.00 | 74 | 1020.8 |
| 20260830130010 | 64 | 190 | 0.0 | 0.0 | 0.00 | 0.00 | 0.00 | 79 | 1020.8 |
| 20260830124505 | 61 | 190 | 0.0 | 0.0 | 0.00 | 0.00 | 0.00 | 82 | 1020.9 |
| 20260830123002 | 60 | 190 | 0.0 | 0.0 | 0.00 | 0.00 | 0.00 | 82 | 1021.1 |
| 20260830121557 | 58 | 190 | 0.0 | 0.0 | 0.00 | 0.00 | 0.00 | 82 | 1021.1 |
| 20260830120056 | 57 | 190 | 0.0 | 0.0 | 0.00 | 0.00 | 0.00 | 82 | 1021.3 |